Regional Weather Roundup
Issued by NWS Boston, MA

Current Version | Previous Version | Text Only | Print | Product List | Glossary Off
Versions: 1 2 3 4 5 6 7 8 9 10 11 12 13 14 15 16 17 18 19 20 21 22 23 24 25 26 27
000 ASUS41 KBOX 210510 RWRBOX REGIONAL WEATHER ROUNDUP NATIONAL WEATHER SERVICE BOSTON/NORTON MA 100 AM EDT THU JUN 21 2018 NOTE: "FAIR" INDICATES FEW OR NO CLOUDS BELOW 12,000 FEET WITH NO SIGNIFICANT WEATHER AND/OR OBSTRUCTIONS TO VISIBILITY. MAZALL-210600- EASTERN MASSACHUSETTS CITY SKY/WX TMP DP RH WIND PRES REMARKS BOSTON FAIR 70 58 65 SW7 29.75F BEVERLY FAIR 63 55 75 CALM 29.74F LAWRENCE FAIR 65 54 67 S3 29.77F BEDFORD FAIR 61 57 87 CALM 29.74F BLUE HILL N/A 65 60 84 SW8 29.77F NORWOOD FAIR 61 58 90 CALM 29.76F MARSHFIELD FAIR 66 64 94 VRB6 29.76S PLYMOUTH FAIR 66 63 90 S3 29.78F TAUNTON FAIR 65 63 93 CALM 29.77F NEW BEDFORD MOCLDY 67 65 93 SW8 29.77F $$ MAZALL-210600- CAPE COD AND THE ISLANDS CITY SKY/WX TMP DP RH WIND PRES REMARKS FALMOUTH CLOUDY 66 64 94 SW9 29.79F HYANNIS FAIR 68 63 84 SW13 29.77F CHATHAM FAIR 66 62 87 SW9 29.79F PROVINCETOWN FAIR 63 62 97 SW8 29.77F NANTUCKET CLOUDY 62 60 93 SW7 29.80F MARTHAS VNYRD CLOUDY 65 63 93 SW7 29.79F $$ MAZALL-210600- CENTRAL AND WESTERN MASSACHUSETTS CITY SKY/WX TMP DP RH WIND PRES REMARKS WORCESTER FAIR 62 56 80 W8 29.80S FITCHBURG FAIR 64 58 80 CALM 29.77F ORANGE FAIR 56 56 100 S5 29.80S SPRINGFIELD FAIR 58 56 95 CALM 29.77S WESTFIELD FAIR 58 58 100 S3 29.78S NORTH ADAMS FAIR 53 51 93 CALM 29.81S PITTSFIELD FAIR 55 52 89 CALM 29.81S $$ RIZALL-210600- RHODE ISLAND CITY SKY/WX TMP DP RH WIND PRES REMARKS PROVIDENCE MOCLDY 70 64 81 W7 29.78F NEWPORT CLOUDY 66 64 93 S6 29.78F BLOCK ISLAND CLOUDY 66 63 90 SW13 29.80F SMITHFIELD FAIR 65 62 90 VRB3 29.79S WESTERLY CLOUDY 69 65 86 SW6 29.79F $$ CTZALL-210600- CONNECTICUT CITY SKY/WX TMP DP RH WIND PRES REMARKS BRADLEY INTL FAIR 63 60 90 CALM 29.78S HARTFORD FAIR 70 61 73 CALM 29.77S BRIDGEPORT HVY RAIN 69 66 90 W3 29.80R FOG DANBURY RAIN 66 64 93 SW3 29.82R FOG GROTON CLOUDY 66 63 90 SW5 29.78F NEW HAVEN CLOUDY 69 65 86 S5 29.79S CHESTER LGT RAIN 68 64 88 SW5 29.80S MERIDEN LGT RAIN 69 61 75 S5 29.79S WILLIMANTIC FAIR 66 62 87 N3 29.79S OXFORD CLOUDY 68 61 78 CALM 29.82S $$ MEZ002-015-021-024-NHZ003-005-008-011-012-014-VTZ005-008-210600- NORTHERN NEW ENGLAND CITY SKY/WX TMP DP RH WIND PRES REMARKS PORTLAND ME FAIR 63 54 72 W6 29.72F BANGOR ME MOCLDY 63 57 81 CALM 29.69S CONCORD NH FAIR 59 53 80 CALM 29.76S MANCHESTER NH FAIR 65 54 67 S5 29.74F NASHUA NH FAIR 60 55 83 CALM 29.76F PORTSMOUTH NH PTCLDY 64 55 71 W3 29.72F JAFFREY NH FAIR 56 54 93 S3 29.80F KEENE NH FAIR 53 52 96 CALM 29.79F BURLINGTON VT CLOUDY 70 54 56 N6 29.78R MT. WASHINGTON FOG 45 45 100 NW53G59 N/A VSB 1/16WCI 32 $$ NYZ052-076-210600- EASTERN NEW YORK CITY SKY/WX TMP DP RH WIND PRES REMARKS ALBANY FAIR 60 53 77 CALM 29.80S NEW YORK CITY LGT RAIN 73 68 84 E5 29.76F $$ ANZALL-210600- MARINE OBSERVATIONS STATION/POSITION TIME TEMP WIND PRES VSBY WAVE AIR SEA DIR/SP/G HT/PER (UTC) (F) (DEG/KT/KT) (MB) (MI) (FT/S) BOSTON BUOY 0450 65 64 210/ 8/ 10 1007.3F 1/ 8 BUZZARDS BAY 0400 65 240/ 11/ 11 1009.8F NANTUCKET SOUND 0450 65 65 220/ 12/ 14 1008.6F 1/ 3 MASS BAY-STELLWA 0404 61 60 1006.3S 1/ 8 ISLE OF SHOALS 0400 68 250/ 13/ 13 1006.7S S OF BLOCK IS 0443 62 N/A 2/ 7 $$ ......................KEY......................... SKY/WX - SKY CONDITION/PRESENT WEATHER TMP - TEMPERATURE IN FAHRENHEIT DWPT - DEWPOINT IN FAHRENHEIT RH - RELATIVE HUMIDITY IN PERCENT WIND - DIRECTION AND SPEED IN MPH PRES - MEAN SEA LEVEL PRESSURE IN INCHES OF HG WCI - WIND CHILL INDEX VSB - VISIBILITY IN MILES HX - HEAT INDEX TC - TEMPERATURE IN CELSIUS VRB - VARIABLE WIND DIRECTION N/A - NOT AVAILABLE

USA.gov is the U.S. government's official web portal to all federal, state and local government web resources and services.